THOR AGENA B DEB, 2092

Orbit data source: Space-Track

THOR AGENA B DEB, 2092 is space debris in LEO originally from a launch on Mon, 29 Nov 1965 UTC launched from the Air Force Western Test Range (AFWTR). Debris objects in space refer to the collection of defunct objects orbiting the Earth. Examples of debris include non-operational satellites, rocket bodies, and fragments generated from explosions, collisions, or faulty payload assembly.

Loading next visibility...
Identifier
2092, 1965-098H
Orbit
LEO
Country
Flag of USUS
Related business
Manufacturer
Unknown
Mission
Spacecraft
Bus & Motor
Unknown
Mass
~1 kg wet, ~1 kg dry
Launch date (UTC)
1965-11-29 (60 years ago)
Launch vehicle
Unknown
Launch site
Air Force Western Test Range (AFWTR)
Object type
Payload
Rocket body
Debris
Shape & HBR
Unknown
Radar Cross Section
Small (<0.1 m²)

Expand to show TLE details & history
Last TLE update: 21 hours ago

TLE from 21 hours ago
0 THOR AGENA B DEB
1 02092U 65098H   25310.38845924  .00001193  00000-0  39151-3 0  9991
2 02092  79.8641 191.1905 1297815 204.0877 149.3885 12.34618538652920
Epoch: 2025-11-06T09:19Z
TLE epoch observation values (Epoch: 2025-11-06T09:19:22.878Z)
Latitude
0.00001°
Longitude
5.49769°
Altitude
2,444.944 km
Speed
6.323 km/s
True Right ascension
12h 44m 45s
True Declination
0° 00' 00"
Sunlit
Object was in daylight at epoch
Visualization orbit readout
Latitude
Unknown
Longitude
Unknown
Altitude
Unknown
Speed
Unknown
Apparent Right ascension
Unknown
Apparent Declination
Unknown
Sunlit
N/A
Visualization observer readout
Local Sidereal Time
02:39:40
Azimuth
Unknown
Elevation
Unknown
Doppler factor
Unknown
Orbital elements
Apogee altitude
2,552.842 km
Perigee altitude
500.984 km
Semi-major axis
7,905.05 km
Eccentricity
0.12978
Inclination
79.8641°
RAAN
191.1905°
Arg. of periapsis
204.0877°
True anomaly
156.01553°
Mean anomaly
149.3885°
Eccentric anomaly
152.78875°
Mean motion
3.08806 °/min
Orbital period
116.58 mins
BSTAR
0.00039151
Loading maneuver chart data...
Computing Atmospheric mass density...
Loading historical data...
Loading historical data...
Loading historical data...
Loading historical data...
Loading historical data...
Loading historical data...
Loading historical data...

Documentation

Showing up to 5 results
|